Powrót do katalogu

DELTA 1 DEB

LostSSO
NORAD 40767·DEBRIS·🇺🇸 United States

Wystrzelony Jul 29, 1976 z Vandenberg Space Force Base

Loading…

Następne Przeloty (najbliższe 24 godziny)

TLE

NieaktualneSource: Space-Track

Epoka: Jul 4, 2015, 19:30 UTC

1 40767U 76077GL  15185.81297419 -.00000556  00000-0 -47731-2 0  9994
2 40767 102.1090 182.6378 0113597 318.3049  40.9387 12.21396510415278

Śledź DELTA 1 DEB w czasie rzeczywistym z AllMySat

Download on the App Store